Total_Precipitation_Accumulation
0.42 0.28 0.29 0.35 0.34 0.37 0.48 0.51 0.45 0.26 0.17 0.14 0.12 0.11 0.11 0.10 0.09 0.08 0.07 0.08 0.11 0.12 0.11 0.13 0.15 0.16 0.21 0.26 0.29 0.34 0.40 0.42 0.42 0.43 0.47 0.47 0.49 0.52 0.55 0.59 0.62 0.64 0.65 0.69
0.49 0.29 0.27 0.29 0.25 0.26 0.31 0.29 0.26 0.20 0.20 0.16 0.12 0.09 0.08 0.08 0.10 0.10 0.09 0.10 0.11 0.14 0.14 0.14 0.18 0.25 0.31 0.38 0.41 0.44 0.48 0.51 0.49 0.45 0.45 0.49 0.50 0.50 0.53 0.58 0.58 0.58 0.59 0.61
0.70 0.37 0.50 0.51 0.28 0.25 0.27 0.28 0.25 0.25 0.22 0.16 0.12 0.10 0.09 0.09 0.11 0.11 0.11 0.10 0.11 0.13 0.18 0.19 0.24 0.33 0.40 0.43 0.45 0.48 0.50 0.54 0.56 0.49 0.45 0.48 0.50 0.49 0.48 0.49 0.51 0.52 0.53 0.53
0.97 0.71 0.91 0.44 0.18 0.20 0.22 0.24 0.25 0.24 0.21 0.17 0.15 0.12 0.09 0.09 0.11 0.14 0.15 0.16 0.16 0.17 0.20 0.24 0.30 0.36 0.42 0.46 0.49 0.50 0.50 0.49 0.50 0.44 0.39 0.41 0.46 0.45 0.42 0.42 0.46 0.47 0.48 0.47
1.22 0.94 0.54 0.18 0.12 0.18 0.24 0.29 0.27 0.25 0.22 0.19 0.16 0.13 0.13 0.13 0.13 0.14 0.15 0.15 0.15 0.15 0.17 0.22 0.28 0.32 0.34 0.38 0.40 0.41 0.40 0.38 0.39 0.36 0.35 0.40 0.45 0.42 0.38 0.37 0.39 0.41 0.43 0.46
1.34 1.06 0.52 0.19 0.10 0.13 0.23 0.33 0.25 0.22 0.23 0.22 0.23 0.36 0.25 0.19 0.14 0.11 0.10 0.10 0.10 0.11 0.12 0.14 0.19 0.22 0.23 0.25 0.27 0.30 0.31 0.31 0.36 0.33 0.31 0.36 0.42 0.40 0.38 0.37 0.39 0.41 0.43 0.51
1.14 0.98 0.44 0.17 0.10 0.14 0.37 0.45 0.27 0.24 0.24 0.28 0.37 0.43 0.28 0.19 0.16 0.14 0.11 0.10 0.11 0.13 0.16 0.18 0.21 0.22 0.21 0.20 0.21 0.22 0.24 0.26 0.33 0.35 0.33 0.33 0.36 0.38 0.38 0.38 0.40 0.42 0.44 0.48
0.89 1.07 0.57 0.18 0.17 0.33 0.46 0.31 0.26 0.26 0.28 0.35 0.32 0.23 0.19 0.19 0.19 0.16 0.14 0.14 0.14 0.17 0.23 0.27 0.27 0.22 0.19 0.16 0.15 0.16 0.19 0.22 0.28 0.35 0.33 0.32 0.34 0.35 0.35 0.39 0.43 0.44 0.46 0.48
0.66 0.61 0.35 0.25 0.29 0.32 0.30 0.30 0.31 0.39 0.39 0.38 0.35 0.28 0.26 0.23 0.19 0.16 0.15 0.16 0.18 0.19 0.24 0.28 0.25 0.19 0.17 0.16 0.14 0.14 0.17 0.21 0.26 0.32 0.32 0.32 0.33 0.35 0.35 0.38 0.44 0.49 0.51 0.53
0.45 0.34 0.26 0.23 0.20 0.20 0.22 0.27 0.31 0.33 0.36 0.39 0.42 0.36 0.31 0.28 0.26 0.22 0.20 0.20 0.20 0.19 0.22 0.25 0.21 0.16 0.16 0.15 0.13 0.14 0.17 0.22 0.27 0.32 0.34 0.34 0.33 0.33 0.36 0.42 0.57 0.65 0.65 0.63
0.33 0.26 0.23 0.23 0.22 0.22 0.23 0.22 0.20 0.21 0.26 0.36 0.42 0.38 0.30 0.29 0.29 0.30 0.28 0.25 0.24 0.23 0.24 0.23 0.18 0.14 0.15 0.18 0.20 0.21 0.22 0.26 0.31 0.34 0.35 0.36 0.35 0.35 0.40 0.45 0.68 0.95 0.91 0.90
0.31 0.24 0.24 0.25 0.22 0.22 0.25 0.23 0.23 0.24 0.26 0.27 0.31 0.31 0.27 0.28 0.29 0.29 0.30 0.31 0.28 0.25 0.21 0.19 0.17 0.15 0.16 0.18 0.23 0.25 0.26 0.29 0.33 0.39 0.40 0.40 0.39 0.39 0.42 0.46 0.56 0.64 0.71 0.84
0.24 0.20 0.19 0.19 0.18 0.18 0.21 0.23 0.25 0.26 0.26 0.23 0.22 0.24 0.28 0.33 0.32 0.30 0.30 0.30 0.26 0.22 0.21 0.21 0.19 0.19 0.20 0.23 0.26 0.29 0.31 0.33 0.37 0.39 0.42 0.43 0.44 0.45 0.45 0.43 0.44 0.49 0.54 0.62
0.18 0.17 0.19 0.17 0.17 0.16 0.18 0.19 0.21 0.23 0.22 0.19 0.19 0.20 0.25 0.30 0.29 0.26 0.25 0.24 0.21 0.20 0.20 0.20 0.20 0.21 0.22 0.24 0.28 0.31 0.33 0.37 0.41 0.43 0.45 0.45 0.47 0.48 0.48 0.48 0.48 0.48 0.49 0.53
0.14 0.16 0.19 0.17 0.15 0.15 0.16 0.16 0.17 0.19 0.18 0.18 0.16 0.18 0.21 0.25 0.28 0.28 0.24 0.20 0.18 0.18 0.19 0.19 0.20 0.21 0.21 0.23 0.26 0.28 0.31 0.34 0.38 0.42 0.45 0.46 0.49 0.50 0.49 0.49 0.50 0.50 0.51 0.54
0.15 0.16 0.15 0.15 0.17 0.19 0.19 0.17 0.18 0.19 0.17 0.18 0.18 0.18 0.19 0.20 0.21 0.21 0.20 0.18 0.17 0.18 0.20 0.20 0.20 0.21 0.22 0.24 0.27 0.28 0.30 0.37 0.42 0.44 0.45 0.47 0.50 0.52 0.53 0.54 0.54 0.54 0.56 0.62
0.19 0.19 0.19 0.21 0.21 0.23 0.24 0.24 0.21 0.19 0.15 0.14 0.15 0.15 0.14 0.14 0.15 0.15 0.17 0.18 0.18 0.19 0.19 0.21 0.22 0.21 0.22 0.24 0.30 0.32 0.33 0.37 0.43 0.44 0.45 0.47 0.52 0.57 0.59 0.62 0.63 0.60 0.57 0.62
0.24 0.25 0.27 0.29 0.28 0.27 0.26 0.23 0.20 0.17 0.15 0.14 0.14 0.14 0.13 0.14 0.15 0.16 0.16 0.17 0.16 0.16 0.18 0.20 0.23 0.21 0.20 0.25 0.34 0.36 0.39 0.43 0.45 0.46 0.47 0.50 0.56 0.58 0.60 0.62 0.63 0.61 0.57 0.57
0.23 0.25 0.26 0.27 0.27 0.28 0.26 0.23 0.20 0.19 0.19 0.17 0.17 0.18 0.18 0.19 0.19 0.19 0.18 0.16 0.16 0.18 0.19 0.20 0.22 0.19 0.20 0.25 0.38 0.41 0.45 0.48 0.48 0.47 0.48 0.54 0.55 0.51 0.55 0.59 0.60 0.58 0.56 0.57
0.24 0.23 0.24 0.25 0.25 0.25 0.25 0.22 0.19 0.19 0.20 0.20 0.19 0.20 0.21 0.22 0.21 0.20 0.19 0.19 0.21 0.25 0.22 0.21 0.21 0.22 0.26 0.32 0.44 0.49 0.51 0.52 0.53 0.51 0.51 0.52 0.53 0.52 0.53 0.55 0.58 0.59 0.58 0.59
0.27 0.25 0.25 0.25 0.24 0.22 0.21 0.19 0.17 0.18 0.19 0.19 0.19 0.20 0.21 0.22 0.22 0.21 0.20 0.21 0.23 0.24 0.22 0.23 0.25 0.34 0.42 0.50 0.54 0.52 0.52 0.53 0.55 0.56 0.56 0.57 0.57 0.55 0.54 0.56 0.58 0.60 0.60 0.60
0.26 0.26 0.26 0.25 0.23 0.22 0.22 0.20 0.19 0.19 0.19 0.20 0.20 0.20 0.21 0.22 0.22 0.23 0.24 0.27 0.29 0.31 0.28 0.27 0.35 0.53 0.58 0.59 0.53 0.51 0.50 0.49 0.51 0.53 0.57 0.60 0.64 0.63 0.60 0.61 0.64 0.63 0.61 0.63
0.26 0.27 0.28 0.27 0.25 0.24 0.24 0.23 0.22 0.22 0.22 0.23 0.23 0.24 0.25 0.27 0.26 0.29 0.34 0.32 0.31 0.34 0.32 0.32 0.45 0.55 0.56 0.52 0.48 0.48 0.48 0.50 0.52 0.55 0.59 0.63 0.67 0.69 0.71 0.69 0.68 0.68 0.69 0.69
0.30 0.30 0.31 0.29 0.25 0.24 0.26 0.26 0.25 0.25 0.26 0.26 0.28 0.28 0.28 0.29 0.31 0.32 0.35 0.35 0.34 0.35 0.33 0.37 0.44 0.47 0.46 0.45 0.45 0.47 0.50 0.55 0.60 0.62 0.63 0.66 0.67 0.69 0.73 0.75 0.75 0.71 0.70 0.71
0.35 0.34 0.32 0.29 0.27 0.28 0.30 0.29 0.28 0.27 0.26 0.28 0.29 0.30 0.30 0.31 0.35 0.36 0.34 0.34 0.35 0.35 0.35 0.36 0.39 0.41 0.40 0.42 0.45 0.49 0.55 0.62 0.70 0.74 0.73 0.72 0.69 0.71 0.72 0.75 0.79 0.79 0.77 0.75
0.40 0.39 0.36 0.34 0.32 0.32 0.32 0.31 0.32 0.32 0.29 0.29 0.30 0.30 0.29 0.30 0.31 0.33 0.34 0.36 0.36 0.36 0.36 0.36 0.37 0.40 0.42 0.45 0.48 0.52 0.58 0.63 0.66 0.66 0.65 0.67 0.68 0.70 0.72 0.75 0.78 0.80 0.80 0.77
0.39 0.36 0.33 0.30 0.30 0.30 0.30 0.30 0.31 0.34 0.33 0.31 0.32 0.30 0.27 0.26 0.28 0.29 0.32 0.34 0.36 0.37 0.38 0.39 0.41 0.43 0.45 0.47 0.50 0.54 0.57 0.60 0.64 0.68 0.68 0.68 0.69 0.71 0.73 0.77 0.80 0.79 0.79 0.78